CZ-3B DEB, 40850

Orbit data source: Space-Track

CZ-3B DEB, 40850 is space debris in HEO originally from a launch on Mon, 19 Dec 2011 UTC launched from the Xichang Space Center, China (XSC). Debris objects in space refer to the collection of defunct objects orbiting the Earth. Examples of debris include non-operational satellites, rocket bodies, and fragments generated from explosions, collisions, or faulty payload assembly.

Loading next visibility...
Identifier
40850, 2011-077AF
Orbit
HEO
Country
Flag of CNCN / PRC
Related business
Manufacturer
CALT
Mission
Spacecraft
Bus & Motor
Unknown
Mass
Unknown
Launch date (UTC)
2011-12-19 (14 years ago)
Launch vehicle
Unknown
Launch site
Xichang Space Center, China (XSC)
Object type
Payload
Rocket body
Debris
Shape & HBR
Unknown shape, 0.1 m
Radar Cross Section
Medium (>0.1 m² and <1 m²)

Expand to show TLE details & history
Last TLE update: 13 hours ago

TLE from 13 hours ago
0 CZ-3B DEB
1 40850U 11077AF  25354.03773396 -.00000026  00000-0  14561-2 0  9998
2 40850  25.6049 294.3632 7475015 170.0454 224.6964  1.92912433 75834
Epoch: 2025-12-20T00:54Z
TLE epoch observation values (Epoch: 2025-12-20T00:54:20.214Z)
Latitude
0.0001°
Longitude
-168.12047°
Altitude
39,210.94 km
Speed
1.692 km/s
True Right ascension
19h 37m 20s
True Declination
0° 00' 00"
Sunlit
Object was in daylight at epoch
Visualization orbit readout
Latitude
Unknown
Longitude
Unknown
Altitude
Unknown
Speed
Unknown
Apparent Right ascension
Unknown
Apparent Declination
Unknown
Sunlit
N/A
Visualization observer readout
Local Sidereal Time
13:00:33
Azimuth
Unknown
Elevation
Unknown
Doppler factor
Unknown
Orbital elements
Apogee altitude
41,262.338 km
Perigee altitude
505.49 km
Semi-major axis
27,262.051 km
Eccentricity
0.7475
Inclination
25.6049°
RAAN
294.3632°
Arg. of periapsis
170.0454°
True anomaly
190.01194°
Mean anomaly
224.6964°
Eccentric anomaly
205.95307°
Mean motion
0.48218 °/min
Orbital period
746.62 mins
BSTAR
0.0014561
Loading maneuver chart data...
Computing Atmospheric mass density...
Loading historical data...
Loading historical data...
Loading historical data...
Loading historical data...
Loading historical data...
Loading historical data...
Loading historical data...

Documentation

Showing up to 5 results
|